KD4PYR Weather Reports


Display with metric or nautical units.
time (UTC)temp
F
wind
direction
speed
MPH
gust
MPH
rain 1hr
in
rain 24hr
in
rain mn
in
humidity
%
barometer
mb
20260904200831 96 312 2.0 8.0 0.00 0.00 0.00 50 1015.8
20260904195815 96 315 2.0 8.0 0.00 0.00 0.00 49 1015.7
20260904194837 96 186 2.0 9.0 0.00 0.00 0.00 49 1015.8
20260904193831 96 302 4.0 11.0 0.00 0.00 0.00 48 1015.8
20260904192822 97 295 4.0 10.0 0.00 0.00 0.00 47 1016.0
20260904191814 97 285 5.0 11.0 0.00 0.00 0.00 49 1016.0
20260904190830 97 290 2.0 12.0 0.00 0.00 0.00 49 1016.3
20260904185815 97 341 3.0 9.0 0.00 0.00 0.00 47 1016.3
20260904184818 96 304 3.0 10.0 0.00 0.00 0.00 51 1016.5
20260904183837 96 304 6.0 13.0 0.00 0.00 0.00 49 1016.6
20260904182830 98 296 3.0 9.0 0.00 0.00 0.00 49 1016.7
20260904181821 97 299 3.0 8.0 0.00 0.00 0.00 49 1016.7
20260904180839 96 285 3.0 15.0 0.00 0.00 0.00 50 1016.9
20260904175841 96 292 4.0 9.0 0.00 0.00 0.00 50 1017.1
20260904174824 96 325 5.0 11.0 0.00 0.00 0.00 50 1017.4
20260904173843 96 321 2.0 9.0 0.00 0.00 0.00 51 1017.5
20260904172814 95 213 2.0 8.0 0.00 0.00 0.00 51 1017.6
20260904171852 94 206 5.0 14.0 0.00 0.00 0.00 52 1017.6
20260904170820 94 328 4.0 13.0 0.00 0.00 0.00 54 1017.7
20260904165843 93 293 2.0 12.0 0.00 0.00 0.00 54 1017.8
20260904164823 94 313 4.0 14.0 0.00 0.00 0.00 55 1017.8
20260904163840 93 304 6.0 13.0 0.00 0.00 0.00 55 1017.9
20260904162832 93 288 6.0 12.0 0.00 0.00 0.00 55 1017.8
20260904161824 93 307 3.0 10.0 0.00 0.00 0.00 56 1017.7
20260904160814 92 298 2.0 8.0 0.00 0.00 0.00 57 1017.7
20260904155820 91 315 1.0 5.0 0.00 0.00 0.00 59 1017.9
20260904154825 91 313 8.0 12.0 0.00 0.00 0.00 59 1017.9
20260904153815 90 304 1.0 9.0 0.00 0.00 0.00 60 1017.8
20260904152855 90 311 4.0 8.0 0.00 0.00 0.00 61 1017.7
20260904151826 89 307 3.0 8.0 0.00 0.00 0.00 63 1017.8
20260904150841 89 151 0.0 3.0 0.00 0.00 0.00 65 1017.8
20260904145825 88 294 2.0 8.0 0.00 0.00 0.00 65 1017.7
20260904144827 87 298 0.0 4.0 0.00 0.00 0.00 67 1017.6
20260904143823 87 292 0.0 5.0 0.00 0.00 0.00 67 1017.7
20260904142815 86 159 2.0 5.0 0.00 0.00 0.00 69 1017.6
20260904141835 85 190 0.0 3.0 0.00 0.00 0.00 70 1017.6
20260904140826 84 296 1.0 7.0 0.00 0.00 0.00 72 1017.6
20260904135829 83 282 0.0 2.0 0.00 0.00 0.00 74 1017.7
20260904134831 83 288 0.0 3.0 0.00 0.00 0.00 74 1017.6
20260904133823 82 183 0.0 0.0 0.00 0.00 0.00 75 1017.7
20260904132816 81 159 0.0 0.0 0.00 0.00 0.00 76 1017.9
20260904131834 81 160 0.0 0.0 0.00 0.00 0.00 77 1018.0
20260904130824 80 160 0.0 0.0 0.00 0.00 0.00 77 1017.9
20260904125831 80 160 0.0 0.0 0.00 0.00 0.00 78 1017.8
20260904124835 79 160 0.0 0.0 0.00 0.00 0.00 78 1017.8
20260904123827 79 159 0.0 0.0 0.00 0.00 0.00 78 1017.7
20260904122821 78 159 0.0 0.0 0.00 0.00 0.00 78 1017.5
20260904121839 78 159 0.0 0.0 0.00 0.00 0.00 79 1017.5
20260904120830 77 159 0.0 0.0 0.00 0.00 0.00 79 1017.4
20260904115815 76 158 0.0 0.0 0.00 0.00 0.00 80 1017.1
20260904114847 76 158 0.0 2.0 0.00 0.00 0.00 80 1017.0
20260904113818 76 158 1.0 2.0 0.00 0.00 0.00 80 1017.0
20260904112900 76 158 0.0 1.0 0.00 0.00 0.00 81 1016.9
20260904111832 75 158 0.0 2.0 0.00 0.00 0.00 81 1017.0
20260904110822 75 158 0.0 2.0 0.00 0.00 0.00 81 1016.7
20260904105826 76 158 0.0 0.0 0.00 0.00 0.00 81 1016.6
20260904104830 76 158 0.0 0.0 0.00 0.00 0.00 81 1016.7
20260904103820 76 158 0.0 1.0 0.00 0.00 0.00 81 1016.7
20260904102839 76 158 0.0 2.0 0.00 0.00 0.00 81 1016.6
20260904101833 75 158 0.0 2.0 0.00 0.00 0.00 81 1016.6
20260904100826 75 158 0.0 0.0 0.00 0.00 0.00 82 1016.6
20260904095833 75 158 0.0 1.0 0.00 0.00 0.00 81 1016.5
20260904094816 75 158 0.0 2.0 0.00 0.00 0.00 81 1016.5
20260904093835 75 158 0.0 0.0 0.00 0.00 0.00 81 1016.5
20260904092827 75 158 0.0 1.0 0.00 0.00 0.00 81 1016.5
20260904091846 75 158 0.0 1.0 0.00 0.00 0.00 81 1016.5
20260904090815 75 158 0.0 0.0 0.00 0.00 0.00 81 1016.5
20260904085817 75 158 0.0 0.0 0.00 0.00 0.00 81 1016.6
20260904084822 76 158 0.0 0.0 0.00 0.00 0.00 81 1016.5
20260904083815 76 158 0.0 0.0 0.00 0.00 0.00 81 1016.6
20260904082834 76 158 0.0 1.0 0.00 0.00 0.00 81 1016.5
20260904081826 76 158 0.0 0.0 0.00 0.00 0.00 81 1016.5
20260904080816 76 158 0.0 0.0 0.00 0.00 0.00 81 1016.6
20260904075841 76 158 0.0 0.0 0.00 0.00 0.00 81 1016.5
20260904074928 76 158 0.0 0.0 0.00 0.00 0.00 81 1016.5
20260904073830 76 158 0.0 0.0 0.00 0.00 0.00 80 1016.6
20260904072822 76 158 0.0 0.0 0.00 0.00 0.00 80 1016.7
20260904071839 77 158 0.0 0.0 0.00 0.00 0.00 80 1016.7
20260904070830 77 158 0.0 0.0 0.00 0.00 0.00 79 1016.7
20260904065816 77 158 0.0 0.0 0.00 0.00 0.00 80 1016.7
20260904064840 77 158 0.0 0.0 0.00 0.00 0.00 79 1016.8
20260904063832 77 158 0.0 0.0 0.00 0.00 0.00 79 1016.8
20260904062852 77 158 0.0 0.0 0.00 0.00 0.00 79 1016.9
20260904061824 78 158 0.0 2.0 0.00 0.00 0.00 79 1016.9
20260904060815 78 158 0.0 2.0 0.00 0.00 0.00 78 1017.0
20260904055819 78 158 0.0 2.0 0.00 0.00 0.00 78 1017.1
20260904054823 77 158 1.0 2.0 0.00 0.00 0.00 79 1017.0
20260904053814 78 158 0.0 1.0 0.00 0.00 0.00 79 1017.0
20260904052832 78 158 0.0 1.0 0.00 0.00 0.00 79 1017.1
20260904051822 78 158 0.0 1.0 0.00 0.00 0.00 79 1017.2
20260904050814 78 158 0.0 1.0 0.00 0.00 0.00 79 1017.2
20260904045817 78 158 0.0 0.0 0.00 0.00 0.00 79 1017.2
20260904044821 78 158 0.0 0.0 0.00 0.00 0.00 79 1017.1
20260904043839 79 158 0.0 0.0 0.00 0.00 0.00 78 1017.2
20260904042830 79 158 0.0 0.0 0.00 0.00 0.00 78 1017.2
20260904041825 79 158 0.0 0.0 0.00 0.00 0.00 78 1017.0
20260904040815 79 158 0.0 0.0 0.00 0.00 0.00 78 1017.0
20260904035816 80 158 0.0 0.0 0.00 0.00 0.00 78 1017.0
20260904034820 80 158 0.0 1.0 0.00 0.00 0.00 77 1016.9
20260904033840 80 158 0.0 1.0 0.00 0.00 0.00 77 1016.9
20260904032833 81 158 0.0 2.0 0.00 0.00 0.00 77 1017.0
20260904031824 81 158 0.0 1.0 0.00 0.00 0.00 77 1017.0
20260904030815 81 158 0.0 1.0 0.00 0.00 0.00 77 1017.0
20260904025817 81 158 0.0 2.0 0.00 0.00 0.00 77 1017.0
20260904024841 81 158 0.0 3.0 0.00 0.00 0.00 77 1017.1
20260904023859 81 158 0.0 1.0 0.00 0.00 0.00 77 1017.3
20260904022831 81 158 0.0 1.0 0.00 0.00 0.00 77 1017.2
20260904021822 81 158 0.0 0.0 0.00 0.00 0.00 77 1017.3
20260904020842 81 158 0.0 0.0 0.00 0.00 0.00 77 1017.3
20260904015826 81 158 0.0 0.0 0.00 0.00 0.00 76 1017.2
20260904014830 81 158 0.0 0.0 0.00 0.00 0.00 75 1017.3
20260904013823 82 158 0.0 0.0 0.00 0.00 0.00 75 1017.4
20260904012815 82 158 0.0 0.0 0.00 0.00 0.00 74 1017.3
20260904011854 82 158 0.0 0.0 0.00 0.00 0.00 75 1017.1
20260904010824 83 158 0.0 0.0 0.00 0.00 0.00 74 1017.0
20260904005852 83 158 0.0 0.0 0.00 0.00 0.00 73 1017.0
20260904004835 84 158 0.0 0.0 0.00 0.00 0.00 73 1016.9
20260904003828 84 158 0.0 0.0 0.00 0.00 0.00 72 1016.8
20260904002819 85 158 0.0 0.0 0.00 0.00 0.00 69 1016.7
20260904001834 86 158 0.0 0.0 0.00 0.00 0.00 68 1016.5
20260904000827 87 158 0.0 0.0 0.00 0.00 0.00 68 1016.4
20260903235832 88 158 0.0 0.0 0.00 0.00 0.00 65 1016.4
20260903234833 89 158 0.0 0.0 0.00 0.00 0.00 63 1016.3
20260903233825 89 158 0.0 0.0 0.00 0.00 0.00 64 1016.3
20260903232819 90 158 0.0 0.0 0.00 0.00 0.00 60 1016.3
20260903231856 90 158 0.0 3.0 0.00 0.00 0.00 60 1016.2
20260903230825 90 158 1.0 3.0 0.00 0.00 0.00 59 1016.1
20260903225829 91 163 1.0 5.0 0.00 0.00 0.00 58 1016.1
20260903224834 91 192 2.0 7.0 0.00 0.00 0.00 58 1016.2
20260903223835 91 310 1.0 4.0 0.00 0.00 0.00 58 1016.2
20260903222853 91 176 4.0 6.0 0.00 0.00 0.00 57 1016.1
20260903221852 92 196 2.0 7.0 0.00 0.00 0.00 57 1015.9
20260903220820 92 161 4.0 8.0 0.00 0.00 0.00 56 1015.8
20260903215850 92 169 3.0 8.0 0.00 0.00 0.00 55 1015.7
20260903214833 93 162 2.0 8.0 0.00 0.00 0.00 55 1015.8
20260903213824 93 162 3.0 6.0 0.00 0.00 0.00 56 1015.7
20260903212816 92 338 2.0 5.0 0.00 0.00 0.00 55 1015.8
20260903211835 93 177 4.0 7.0 0.00 0.00 0.00 53 1015.8
20260903210829 94 175 3.0 8.0 0.00 0.00 0.00 52 1016.0
20260903205835 94 338 1.0 7.0 0.00 0.00 0.00 52 1016.0
20260903204848 93 360 1.0 4.0 0.00 0.00 0.00 54 1016.1
20260903203820 94 172 2.0 6.0 0.00 0.00 0.00 52 1016.2
20260903202838 95 306 4.0 5.0 0.00 0.00 0.00 50 1016.3
20260903201828 94 101 1.0 9.0 0.00 0.00 0.00 51 1016.5